Flag for U.S.A. Weather past 2 weeks in New York, New York, U.S.A.

Now
84 °F

Passing clouds.


Feels Like: 85 °F
Forecast: 76 / 87 °F
Wind: 5 mph from North

Location: New York City - Central Park

Current Time: Sep 1, 2015 at 12:22:20 PM

Latest Report: Sep 1, 2015 at 11:51 AM


Visibility: 8 mi

Pressure: 30.05 "Hg

Humidity: 49%

Dew point: 63 °F

Location of New YorkLocation

Historic Weather in New York — Graph

°F

New York temperature yesterday

Maximum temperature yesterday: 91 °F (at 2:51 PM)
Minimum temperature yesterday: 76 °F (at 4:51 AM)
Average temperature yesterday: 83 °F

Past Weeks' High & Low Weather Summary

 TemperatureHumidityPressure
High93 °F (Aug 17, 12:51 PM)91% (Aug 21, 2:51 AM)30.22 "Hg (Aug 21, 2:51 AM)
Low64 °F (Aug 28, 5:51 AM)30% (Aug 26, 1:51 PM)29.80 "Hg (Aug 25, 4:51 PM)
Average78 °F57%30.02 "Hg
* Reported Aug 17 10:51 AM — Sep 1 10:51 AM, New York, Weather by CustomWeather, © 2015

Note: Actual official high and low records may vary slightly from our data, if they occured in-between our weather recording intervals... More about our weather records

Advertising

New York weather history for previous 24 hours

 ConditionsComfort  
Time TempWeatherWind HumidityBarometerVisibility
10:51 AM
Tue, Sep 1
83 °FSunny.5 mph51%30.05 "Hg8 mi
9:51 AM81 °FSunny.6 mph56%30.05 "Hg8 mi
8:51 AM79 °FSunny.5 mph62%30.04 "Hg7 mi
7:51 AM77 °FSunny.No wind66%30.04 "Hg7 mi
6:51 AM77 °FClear.No wind66%30.02 "Hg7 mi
5:51 AM76 °FClear.No wind69%30.01 "Hg8 mi
4:51 AM78 °FClear.No wind64%30.00 "Hg9 mi
3:51 AM79 °FClear.No wind65%30.01 "Hg9 mi
2:51 AM80 °FPassing clouds.No wind62%30.00 "Hg9 mi
1:51 AM80 °FClear.No wind62%30.00 "Hg9 mi
12:51 AM81 °FClear.5 mph60%30.00 "Hg9 mi
10:51 PM
Mon, Aug 31
84 °FPassing clouds.7 mph51%29.98 "Hg10 mi
9:51 PM86 °FPassing clouds.5 mph48%29.98 "Hg10 mi
8:51 PM86 °FClear.3 mph46%29.96 "Hg10 mi
7:51 PM87 °FSunny.6 mph45%29.96 "Hg10 mi
6:51 PM87 °FSunny.8 mph46%29.95 "Hg9 mi
5:51 PM89 °FPassing clouds.3 mph42%29.95 "Hg9 mi
4:51 PM90 °FScattered clouds.3 mph41%29.94 "Hg9 mi
3:51 PM91 °FSunny.5 mph41%29.95 "Hg9 mi
2:51 PM91 °FSunny.5 mph39%29.96 "Hg9 mi
1:51 PM88 °FSunny.6 mph48%29.99 "Hg9 mi
12:51 PM85 °FSunny.6 mph55%30.02 "Hg8 mi
Weather by CustomWeather, © 2015

See weather overviewHow to use our weather pages